Location: Amarillo Post Office Jordan Station
(35.1907°N, 101.9342°W)
Time: 12:54:39
(UTC+00:00)

PAYLOAD B - Pass Details

Date: 24 January 2021
Orbit: 850 x 871 km, 99.1° (Epoch: 03 March)

Event Time Altitude Azimuth Distance (km) Brightness Sun altitude
Rises 13:07:20 0° 11° (N) 3,452 7.3 -9.4°
Reaches altitude 10° 13:09:43 10° 10° (N) 2,514 6.6 -8.9°
Maximum altitude 13:15:18 75° 286° (WNW) 901 4.2 -7.8°
Drops below altitude 10° 13:20:51 10° 202° (SSW) 2,508 6.6 -6.8°
Sets 13:23:14 0° 200° (SSW) 3,442 7.4 -6.3°
